Regional Weather Roundup
Issued by NWS

Home | Current Version | Previous Version | Graphics & Text | Print | Product List | Glossary On
Versions: 1 2 3 4 5 6 7 8 9 10 11 12 13 14 15 16 17 18 19 20 21 22 23 24 25 26 27 28 29 30 31 32 33 34 35 36 37 38 39 40 41 42 43 44 45 46 47 48 49 50
000
ASUS43 KMKX 201021
RWRWI

WISCONSIN REGIONAL WEATHER ROUNDUP
NATIONAL WEATHER SERVICE MILWAUKEE/SULLIVAN WI
400 AM CST TUE FEB 20 2018

NOTE: "FAIR" INDICATES FEW OR NO CLOUDS BELOW 12,000 FEET WITH NO
SIGNIFICANT WEATHER AND/OR OBSTRUCTIONS TO VISIBILITY.

WIZ001-002-006>008-014>016-023>028-201100-
NORTHWEST WISCONSIN

CITY           SKY/WX    TMP DP  RH WIND       PRES   REMARKS
SUPERIOR ARPT  CLOUDY    21  19  89 E15G22    29.90F FOG     WCI   8
ASHLAND        CLOUDY    20  16  84 NE16      29.88F FOG     WCI   6
HAYWARD        CLOUDY    18  15  88 NE7       29.82F WCI   9
SIREN          CLOUDY    19  17  93 NE8       29.81F WCI   9
CUMBERLAND     CLOUDY    18  16  93 NE9       29.76F FOG     WCI   6
RICE LAKE      CLOUDY    19  18  95 NE7       29.79F FOG     WCI  10
CHETEK         CLOUDY    19  18  93 E8        29.78F WCI   9
LADYSMITH      CLOUDY    20  18  92 N5        29.83R WCI  14
EAU CLAIRE     CLOUDY    21  19  92 NE7       29.78F WCI  12
MENOMONIE      MIX PCPN  22  20  92 N6        29.79F WCI  14
NEW RICHMOND   FLURRIES  19  16  88 NE3       29.83R
OSCEOLA        LGT SNOW  20  18  89 N3        29.87R
$$

WIZ003>005-009-010-017-018-201100-
NORTH CENTRAL WISCONSIN

CITY           SKY/WX    TMP DP  RH WIND       PRES   REMARKS
MANITOWISH WTR CLOUDY    19  19 100 NE6       29.76F WCI  10
ARBOR VITAE    CLOUDY    22  20  93 NE3       29.74F
WOODRUFF       CLOUDY    22  20  93 NE3       29.74F
RHINELANDER    CLOUDY    22  21  96 E8        29.75F FOG     WCI  12
EAGLE RIVER    CLOUDY    21  21  99 E5        29.76F WCI  14
LAND O LAKES   CLOUDY    21  19  95 NE5       29.77F FOG     WCI  14
PHILLIPS       CLOUDY    19  19 100 CALM      29.79R
TOMAHAWK       CLOUDY    21  19  93 NE5       29.76F FOG     WCI  15
MEDFORD        CLOUDY    22  21  95 NE3       29.78R
MERRILL        CLOUDY    23  23  99 NE3       29.76F
$$

WIZ029-030-035-036-043>047-201100-
CENTRAL WISCONSIN

CITY           SKY/WX    TMP DP  RH WIND       PRES   REMARKS
WAUSAU         CLOUDY    26  26 100 CALM      29.76S FOG
MOSINEE        CLOUDY    27  27 100 E6        29.76F FOG     WCI  20
MARSHFIELD     FRZ RAIN  27  26  96 E7        29.76R FOG     WCI  19
STEVENS POINT  CLOUDY    25  25 100 E5        29.76F FOG     WCI  19
WAUPACA        CLOUDY    30  28  93 CALM      29.78F FOG
WAUTOMA        CLOUDY    28  27  96 NE6       29.78F FOG     WCI  22
WISC RAPIDS    CLOUDY    27  25  92 CALM      29.78R FOG
CAMP DOUGLAS   FRZ RAIN  30  28  93 CALM      29.80R FOG
$$

WIZ011>013-019>022-031-037>040-048>050-201100-
NORTHEAST WISCONSIN

CITY           SKY/WX    TMP DP  RH WIND       PRES   REMARKS
ANTIGO         CLOUDY    24  24 100 E6        29.75F FOG     WCI  17
SHAWANO        CLOUDY    30  28  94 NE6       29.78F FOG     WCI  24
OCONTO         CLOUDY    30  29  96 NE6       29.80F WCI  24
STURGEON BAY   LGT RAIN  33  32  96 N10       29.79S VSB 1/2 WCI  25
GREEN BAY      CLOUDY    31  29  92 NE8       29.79F FOG     WCI  23
MANITOWOC      MIX PCPN  32  31  96 NW7       29.78F VSB 1/2 WCI  26
APPLETON       FOG       28  28 100 N6        29.77S VSB 1/2 WCI  22
CLINTONVILLE   CLOUDY    28  27  95 NE5       29.78F FOG     WCI  23
OSHKOSH        FOG       30  30 100 NE8       29.78S VSB 1/4 WCI  22
$$

WIZ032>034-041-042-053>061-201100-
SOUTHWEST WISCONSIN

CITY           SKY/WX    TMP DP  RH WIND       PRES   REMARKS
LA CROSSE      FRZ RAIN  31  29  92 NE6       29.76F FOG     WCI  25
SPARTA         MIX PCPN  28  28  99 CALM      29.80R
VIROQUA        CLOUDY    31  31 100 CALM      29.80R
BOSCOBEL       CLOUDY    33  32  96 N6        29.80R FOG     WCI  28
PRAIRIE DU CHI MIX PCPN  33  32  96 NW10G23   29.85R VSB 1   WCI  25
PLATTEVILLE    CLOUDY    35  35 100 SW5       29.75F WCI  31
$$

WIZ056-057-062-063-064-067-068-201100-
SOUTH CENTRAL WISCONSIN

CITY           SKY/WX    TMP DP  RH WIND       PRES   REMARKS
REEDSBURG      LGT RAIN  30  30 100 E5        29.75S VSB 3/4 WCI  25
BARABOO/DELLS  FOG       30  29  98 E5        29.76F VSB<1/4 WCI  25
LONE ROCK      LGT RAIN  33  33 100 N3        29.76F VSB 1/2
MINERAL POINT  RAIN      36  36 100 SE5       29.72F VSB 1/2 WCI  32
MADISON        LGT RAIN  33  33 100 N3        29.77S VSB 1/2
MIDDLETON      CLOUDY    33  33 100 CALM      29.76F VSB 1/2
WATERTOWN      CLOUDY    34  34 100 CALM      29.75F FOG
MONROE         RAIN      37  37 100 S3        29.74F VSB 1/2
JANESVILLE     LGT RAIN  43  43 100 S3        29.76R VSB 1/4
$$

WIZ051-052-058>065-066-070>072-201100-
SOUTHEAST WISCONSIN

CITY           SKY/WX    TMP DP  RH WIND       PRES   REMARKS
MILWAUKEE      LGT RAIN  38  38 100 E3        29.77F VSB 1
WAUKESHA       DRZL/FOG  43  43 100 S7        29.76F VSB 1/4
MILWAUKEE/TIMM CLOUDY    36  34  93 SE3       29.78F FOG
RACINE         LGT RAIN  39  39 100 SW3       29.80F FOG
BURLINGTON     RAIN      44  44  98 S5        29.77F VSB 1/4
KENOSHA        RAIN      54  53  97 SW6       29.78S FOG
FOND DU LAC    FOG       31  28  89 N7        29.77F VSB 3/4 WCI  24
SHEBOYGAN      FOG       34  34 100 NW3       29.77S VSB 3/4
WEST BEND      FOG       34  34 100 CALM      29.75F VSB 1/2
JUNEAU         FOG       31  31  99 N3        29.77F VSB 1/4
$$

LSZ147-162-201100-
LAKE SUPERIOR

STATION/POSITION TIME  TEMP    WIND        PRES    WAVE
                       AIR SEA DIR/SP/G            HT/PER
                 (UTC) (F)     (DEG/KT/KT) (MB)    (FT/S)
DEVILS ISLAND    1000   22      50/ 16/ 18 1014.0F
SAXON HARBOR     0940   20      60/  9/ 13 1011.9S
$$

LMZ867-665-643>646-201100-
LAKE MICHIGAN

STATION/POSITION TIME  TEMP    WIND        PRES    WAVE
                       AIR SEA DIR/SP/G            HT/PER
                 (UTC) (F)     (DEG/KT/KT) (MB)    (FT/S)
NORTHPORT PIER   0940   31                 1009.5F
KEWAUNEE LAKESHO 1000   33     320/  4/  5 1007.8
SHEBOYGAN LAKESH 1000   34      20/  6/  6 1008.3F
PORT WASHINGTON  0930   36     170/  3/  4 1009.5F
MILWAUKEE LAKESH 1000   35     160/  1/  1   N/A
KENOSHA   LAKESH 1000           10/  1/  5 1009.1
$$

TC  - TEMPERATURE IN CELSIUS
VSB - VISIBILITY IN STATUTE MILES
WCI - WIND CHILL INDEX
HX  - HEAT INDEX





USA.gov is the U.S. government's official web portal to all federal, state and local government web resources and services.